Location: Chervonnoye
(48.6000°N, 34.4000°E)
Time: 11:27:26
(UTC+00:00)

KAITUO 1B - Pass Details

Date: 02 December 2021
Orbit: 486 x 507 km, 97.4° (Epoch: 28 January)

Event Time Altitude Azimuth Distance (km) Brightness Sun altitude
Rises 14:36:08 0° 143° (SE) 2,593 ? -7.7°
Reaches altitude 10° 14:38:19 10° 133° (SE) 1,718 ? -8.0°
Maximum altitude 14:41:40 33° 69° (ENE) 876 ? -8.5°
Drops below altitude 10° 14:45:03 10° 5° (N) 1,740 ? -9.0°
Sets 14:47:17 0° 355° (N) 2,634 ? -9.4°
